KA2QBS Weather Reports


Display with metric or nautical units.
time (UTC)temp
F
wind
direction
speed
MPH
gust
MPH
rain 1hr
in
rain 24hr
in
rain mn
in
humidity
%
barometer
mb
20260502123032 40 293 3.0 10.0 0.00 0.00 0.00 92 1015.3
20260502121524 40 281 0.0 5.0 0.00 0.00 0.00 95 1015.3
20260502114523 40 279 0.0 0.0 0.00 0.00 0.00 96 1015.3
20260502113032 39 279 0.0 4.0 0.00 0.00 0.00 96 1015.2
20260502111523 39 279 0.0 3.0 0.00 0.00 0.00 96 1015.1
20260502110030 39 279 0.0 5.0 0.00 0.00 0.00 96 1015.0
20260502104519 39 279 0.0 4.0 0.00 0.00 0.00 96 1014.9
20260502103017 39 279 0.0 1.0 0.00 0.00 0.00 96 1014.7
20260502101516 39 279 0.0 1.0 0.00 0.00 0.00 96 1014.5
20260502091512 39 278 0.0 5.0 0.00 0.00 0.00 96 1014.2
20260502071504 39 275 0.0 3.0 0.00 0.00 0.00 95 1013.8
20260502070007 40 275 0.0 0.0 0.00 0.00 0.00 95 1013.6
20260502064502 40 275 0.0 0.0 0.00 0.00 0.00 95 1013.5
20260502063002 40 275 0.0 0.0 0.00 0.00 0.00 95 1013.9
20260502061601 40 275 0.0 2.0 0.00 0.00 0.00 95 1013.9
20260502060059 40 275 0.0 0.0 0.00 0.00 0.00 95 1013.9
20260502054603 40 275 0.0 3.0 0.00 0.00 0.00 95 1014.0
20260502053056 41 275 0.0 0.0 0.00 0.00 0.00 95 1014.0
20260502051555 41 275 0.0 0.0 0.00 0.00 0.00 95 1014.0
20260502050054 41 275 0.0 0.0 0.00 0.00 0.00 95 1014.0
20260502044556 41 275 0.0 3.0 0.00 0.00 0.00 95 1014.0
20260502043051 42 275 0.0 2.0 0.00 0.00 0.00 95 1013.9
20260502041558 42 275 0.0 2.0 0.00 0.00 0.00 94 1013.9
20260502040048 42 275 0.0 1.0 0.00 0.00 0.00 94 1013.9
20260502034547 42 275 0.0 3.0 0.00 0.00 0.00 93 1013.9
20260502033048 43 275 0.0 0.0 0.00 0.00 0.00 92 1013.8
20260502031554 43 275 0.0 0.0 0.00 0.00 0.00 91 1013.8
20260502030052 43 275 0.0 0.0 0.00 0.00 0.00 89 1014.0
20260502024603 44 275 0.0 0.0 0.00 0.00 0.00 87 1014.0
20260502023103 44 275 0.0 1.0 0.00 0.00 0.00 84 1013.9
20260502021544 45 275 0.0 0.0 0.00 0.00 0.00 82 1013.9
20260502020044 45 275 0.0 0.0 0.00 0.00 0.00 79 1013.9
20260502014543 46 275 0.0 0.0 0.00 0.00 0.00 76 1014.0
20260502013043 47 275 0.0 0.0 0.00 0.00 0.00 76 1013.8
20260502011543 48 275 0.0 0.0 0.00 0.00 0.00 67 1013.8
20260502010042 48 275 0.0 3.0 0.00 0.00 0.00 64 1013.6
20260502004542 49 275 0.0 3.0 0.00 0.00 0.00 63 1013.5
20260502003042 49 275 0.0 2.0 0.00 0.00 0.00 60 1013.3
20260502001543 49 275 2.0 7.0 0.00 0.00 0.00 60 1013.2
20260502000101 49 276 0.0 4.0 0.00 0.00 0.00 60 1013.1
20260501234540 50 279 0.0 3.0 0.00 0.00 0.00 58 1013.0
20260501233040 50 280 1.0 5.0 0.00 0.00 0.00 58 1013.1
20260501231540 50 282 0.0 11.0 0.00 0.00 0.00 56 1013.1
20260501230040 51 290 4.0 9.0 0.00 0.00 0.00 55 1013.0
20260501224559 51 263 0.0 7.0 0.00 0.00 0.00 55 1012.9
20260501223038 52 269 1.0 8.0 0.00 0.00 0.00 50 1012.8
20260501221537 52 282 2.0 6.0 0.00 0.00 0.00 49 1012.8
20260501220041 53 291 1.0 9.0 0.00 0.00 0.00 48 1012.6
20260501214536 53 258 2.0 7.0 0.00 0.00 0.00 47 1012.5
20260501213042 53 292 3.0 10.0 0.00 0.00 0.00 45 1012.5
20260501211536 53 281 1.0 8.0 0.00 0.00 0.00 46 1012.4
20260501210035 53 279 1.0 8.0 0.00 0.00 0.00 45 1012.5
20260501204535 54 319 2.0 11.0 0.00 0.00 0.00 44 1012.4
20260501203037 53 285 4.0 18.0 0.00 0.00 0.00 40 1012.4
20260501201532 54 274 2.0 17.0 0.00 0.00 0.00 40 1012.5
20260501200041 54 294 3.0 11.0 0.00 0.00 0.00 40 1012.6
20260501194540 55 289 5.0 14.0 0.00 0.00 0.00 41 1012.6
20260501193035 54 263 3.0 14.0 0.00 0.00 0.00 40 1012.7
20260501191529 55 293 6.0 14.0 0.00 0.00 0.00 41 1012.7
20260501190034 54 296 4.0 10.0 0.00 0.00 0.00 43 1012.8
20260501184525 55 292 1.0 10.0 0.00 0.00 0.00 46 1012.9
20260501183030 55 297 4.0 10.0 0.00 0.00 0.00 45 1013.0
20260501181524 53 286 0.0 10.0 0.00 0.00 0.00 44 1013.2
20260501180022 53 269 1.0 9.0 0.00 0.00 0.00 45 1013.1
20260501174523 52 290 0.0 7.0 0.00 0.00 0.00 48 1013.3
20260501173021 53 285 0.0 13.0 0.00 0.00 0.00 43 1013.4
20260501171520 53 322 0.0 10.0 0.00 0.00 0.00 45 1013.5
20260501170019 53 355 0.0 6.0 0.00 0.00 0.00 44 1013.7
20260501164517 53 294 2.0 8.0 0.00 0.00 0.00 47 1014.1
20260501163014 52 284 0.0 10.0 0.00 0.00 0.00 54 1014.0
20260501161513 52 288 5.0 12.0 0.00 0.00 0.00 49 1014.3
20260501160013 51 317 3.0 18.0 0.00 0.00 0.00 53 1014.5
20260501154512 50 274 3.0 13.0 0.00 0.00 0.00 55 1014.5
20260501153007 50 286 5.0 11.0 0.00 0.00 0.00 57 1014.4
20260501151506 50 244 7.0 14.0 0.00 0.00 0.00 53 1014.5
20260501150005 49 304 2.0 7.0 0.00 0.00 0.00 56 1014.7